Time,TemperatureF,DewpointF,PressureIn,WindDirection,WindDirectionDegrees,WindSpeedMPH,WindSpeedGustMPH,Humidity,HourlyPrecipIn,Conditions,Clouds,dailyrainin,SoftwareType,DateUTC
2013-09-14 00:00:00,74.5,66.4,29.86,ENE,72,3.0,9.0,76,0.00,,---,0.00,VWS V14.01,2013-09-14 05:00:00,
2013-09-14 00:05:00,74.5,66.4,29.86,ENE,70,2.0,4.0,76,0.00,,---,0.00,VWS V14.01,2013-09-14 05:05:00,
2013-09-14 00:10:00,74.5,66.4,29.86,ENE,73,2.0,4.0,76,0.00,,---,0.00,VWS V14.01,2013-09-14 05:10:00,
2013-09-14 00:15:00,74.6,66.5,29.86,East,88,4.0,5.0,76,0.00,,---,0.00,VWS V14.01,2013-09-14 05:15:00,
2013-09-14 00:21:00,74.7,66.6,29.86,NNE,27,3.0,5.0,76,0.00,,---,0.00,VWS V14.01,2013-09-14 05:21:00,
2013-09-14 00:26:00,74.5,66.8,29.86,NE,37,4.0,6.0,77,0.00,,---,0.00,VWS V14.01,2013-09-14 05:26:00,
2013-09-14 00:31:00,74.4,66.7,29.86,NNE,14,2.0,5.0,77,0.00,,---,0.00,VWS V14.01,2013-09-14 05:31:00,
2013-09-14 00:36:00,74.2,66.5,29.87,NNE,21,3.0,6.0,77,0.00,,---,0.00,VWS V14.01,2013-09-14 05:36:00,
2013-09-14 00:41:00,74.1,66.8,29.86,NE,43,3.0,6.0,78,0.00,,---,0.00,VWS V14.01,2013-09-14 05:41:00,
2013-09-14 00:46:00,74.0,67.1,29.86,NNE,31,2.0,6.0,79,0.00,,---,0.00,VWS V14.01,2013-09-14 05:46:00,
2013-09-14 00:51:00,74.0,67.1,29.87,North,359,2.0,6.0,79,0.00,,---,0.00,VWS V14.01,2013-09-14 05:51:00,
2013-09-14 00:56:00,73.9,67.0,29.87,NNW,333,2.0,6.0,79,0.00,,---,0.00,VWS V14.01,2013-09-14 05:56:00,
2013-09-14 01:01:00,73.7,66.8,29.87,NNW,332,3.0,4.0,79,0.00,,---,0.00,VWS V14.01,2013-09-14 06:01:00,
2013-09-14 01:06:00,73.5,67.0,29.87,NNW,333,2.0,4.0,80,0.00,,---,0.00,VWS V14.01,2013-09-14 06:06:00,
2013-09-14 01:12:00,73.4,66.9,29.87,North,349,2.0,4.0,80,0.00,,---,0.00,VWS V14.01,2013-09-14 06:12:00,
2013-09-14 01:17:00,73.3,66.8,29.87,North,352,1.0,4.0,80,0.00,,---,0.00,VWS V14.01,2013-09-14 06:17:00,
2013-09-14 01:22:00,73.3,66.8,29.87,North,5,3.0,4.0,80,0.00,,---,0.00,VWS V14.01,2013-09-14 06:22:00,
2013-09-14 01:27:00,73.3,66.8,29.86,NNE,20,5.0,5.0,80,0.00,,---,0.00,VWS V14.01,2013-09-14 06:27:00,
2013-09-14 01:32:00,73.3,66.8,29.86,NNE,14,2.0,4.0,80,0.00,,---,0.00,VWS V14.01,2013-09-14 06:32:00,
2013-09-14 01:37:00,73.2,66.7,29.86,North,9,2.0,4.0,80,0.00,,---,0.00,VWS V14.01,2013-09-14 06:37:00,
2013-09-14 01:42:00,73.3,66.8,29.86,NNE,13,3.0,4.0,80,0.00,,---,0.00,VWS V14.01,2013-09-14 06:42:00,
2013-09-14 01:47:00,73.2,66.7,29.86,NE,36,3.0,4.0,80,0.00,,---,0.00,VWS V14.01,2013-09-14 06:47:00,
2013-09-14 01:52:00,73.1,66.9,29.86,NE,37,2.0,4.0,81,0.00,,---,0.00,VWS V14.01,2013-09-14 06:52:00,
2013-09-14 01:57:00,73.1,66.9,29.86,NE,37,3.0,4.0,81,0.00,,---,0.00,VWS V14.01,2013-09-14 06:57:00,
2013-09-14 02:03:00,73.1,66.9,29.86,NE,51,4.0,4.0,81,0.00,,---,0.00,VWS V14.01,2013-09-14 07:03:00,
2013-09-14 02:08:00,73.2,67.0,29.86,ENE,57,1.0,5.0,81,0.00,,---,0.00,VWS V14.01,2013-09-14 07:08:00,
2013-09-14 02:13:00,73.3,67.1,29.86,NE,53,2.0,5.0,81,0.00,,---,0.00,VWS V14.01,2013-09-14 07:13:00,
2013-09-14 02:18:00,73.3,67.1,29.86,East,86,0.0,5.0,81,0.00,,---,0.00,VWS V14.01,2013-09-14 07:18:00,
2013-09-14 02:23:00,73.3,67.1,29.86,NNE,24,1.0,5.0,81,0.00,,---,0.00,VWS V14.01,2013-09-14 07:23:00,
2013-09-14 02:28:00,73.3,67.5,29.86,NNE,28,1.0,5.0,82,0.00,,---,0.00,VWS V14.01,2013-09-14 07:28:00,
2013-09-14 02:33:00,73.1,66.9,29.86,NNE,19,0.0,1.0,81,0.00,,---,0.00,VWS V14.01,2013-09-14 07:33:00,
2013-09-14 02:38:00,72.8,67.0,29.86,North,5,2.0,2.0,82,0.00,,---,0.00,VWS V14.01,2013-09-14 07:38:00,
2013-09-14 02:43:00,72.6,66.8,29.86,NNW,328,1.0,2.0,82,0.00,,---,0.00,VWS V14.01,2013-09-14 07:43:00,
2013-09-14 02:48:00,72.5,66.7,29.86,NNW,328,2.0,2.0,82,0.00,,---,0.00,VWS V14.01,2013-09-14 07:48:00,
2013-09-14 02:54:00,72.4,66.9,29.86,NW,318,2.0,2.0,83,0.00,,---,0.00,VWS V14.01,2013-09-14 07:54:00,
2013-09-14 02:59:00,72.4,66.9,29.86,NW,323,2.0,3.0,83,0.00,,---,0.00,VWS V14.01,2013-09-14 07:59:00,
2013-09-14 03:04:00,72.4,67.3,29.86,NNW,334,2.0,3.0,84,0.00,,---,0.00,VWS V14.01,2013-09-14 08:04:00,
2013-09-14 03:09:00,72.4,67.3,29.86,NW,309,0.0,3.0,84,0.00,,---,0.00,VWS V14.01,2013-09-14 08:09:00,
2013-09-14 03:14:00,72.5,67.4,29.86,NNW,342,1.0,3.0,84,0.00,,---,0.00,VWS V14.01,2013-09-14 08:14:00,
2013-09-14 03:19:00,72.6,67.5,29.85,NNE,19,2.0,3.0,84,0.00,,---,0.00,VWS V14.01,2013-09-14 08:19:00,
2013-09-14 03:24:00,72.6,67.8,29.85,NE,39,3.0,4.0,85,0.00,,---,0.00,VWS V14.01,2013-09-14 08:24:00,
2013-09-14 03:29:00,72.6,67.8,29.85,NNE,22,2.0,5.0,85,0.00,,---,0.00,VWS V14.01,2013-09-14 08:29:00,
2013-09-14 03:34:00,72.6,67.8,29.85,NE,44,3.0,4.0,85,0.00,,---,0.00,VWS V14.01,2013-09-14 08:34:00,
2013-09-14 03:39:00,72.4,67.6,29.85,NW,326,0.0,4.0,85,0.00,,---,0.00,VWS V14.01,2013-09-14 08:39:00,
2013-09-14 03:45:00,72.3,67.5,29.85,NW,326,1.0,4.0,85,0.00,,---,0.00,VWS V14.01,2013-09-14 08:45:00,
2013-09-14 03:50:00,72.3,67.5,29.84,North,11,2.0,4.0,85,0.00,,---,0.00,VWS V14.01,2013-09-14 08:50:00,
2013-09-14 03:55:00,72.3,67.9,29.84,North,11,3.0,4.0,86,0.00,,---,0.00,VWS V14.01,2013-09-14 08:55:00,
2013-09-14 04:00:00,72.4,67.6,29.84,NNE,15,3.0,4.0,85,0.00,,---,0.00,VWS V14.01,2013-09-14 09:00:00,
2013-09-14 04:05:00,72.4,68.0,29.84,NE,36,2.0,4.0,86,0.00,,---,0.00,VWS V14.01,2013-09-14 09:05:00,
2013-09-14 04:10:00,72.5,68.1,29.84,East,84,2.0,4.0,86,0.00,,---,0.00,VWS V14.01,2013-09-14 09:10:00,
2013-09-14 04:15:00,72.6,68.2,29.84,ENE,73,4.0,5.0,86,0.00,,---,0.00,VWS V14.01,2013-09-14 09:15:00,
2013-09-14 04:20:00,72.8,68.0,29.84,ENE,76,3.0,6.0,85,0.00,,---,0.00,VWS V14.01,2013-09-14 09:20:00,
2013-09-14 04:25:00,73.0,68.6,29.84,East,79,6.0,9.0,86,0.00,,---,0.00,VWS V14.01,2013-09-14 09:25:00,
2013-09-14 04:30:00,73.3,68.9,29.84,ENE,76,4.0,6.0,86,0.00,,---,0.00,VWS V14.01,2013-09-14 09:30:00,
2013-09-14 04:36:00,73.4,68.6,29.84,East,94,4.0,8.0,85,0.00,,---,0.00,VWS V14.01,2013-09-14 09:36:00,
2013-09-14 04:41:00,73.5,68.7,29.84,ENE,63,3.0,8.0,85,0.00,,---,0.00,VWS V14.01,2013-09-14 09:41:00,
2013-09-14 04:46:00,73.5,68.7,29.84,ENE,73,3.0,8.0,85,0.00,,---,0.00,VWS V14.01,2013-09-14 09:46:00,
2013-09-14 04:51:00,73.5,68.7,29.84,ENE,66,7.0,11.0,85,0.00,,---,0.00,VWS V14.01,2013-09-14 09:51:00,
2013-09-14 04:56:00,73.5,68.7,29.84,East,84,6.0,12.0,85,0.00,,---,0.00,VWS V14.01,2013-09-14 09:56:00,
2013-09-14 05:01:00,73.5,68.7,29.84,East,79,7.0,9.0,85,0.00,,---,0.00,VWS V14.01,2013-09-14 10:01:00,
2013-09-14 05:06:00,73.5,68.7,29.83,NE,46,4.0,13.0,85,0.00,,---,0.00,VWS V14.01,2013-09-14 10:06:00,
2013-09-14 05:11:00,73.5,68.7,29.83,ENE,66,5.0,14.0,85,0.00,,---,0.00,VWS V14.01,2013-09-14 10:11:00,
2013-09-14 05:16:00,73.5,68.7,29.83,ENE,60,4.0,14.0,85,0.00,,---,0.00,VWS V14.01,2013-09-14 10:16:00,
2013-09-14 05:22:00,73.4,68.6,29.83,East,82,10.0,14.0,85,0.00,,---,0.00,VWS V14.01,2013-09-14 10:22:00,
2013-09-14 05:27:00,73.3,68.9,29.83,ENE,75,5.0,14.0,86,0.00,,---,0.00,VWS V14.01,2013-09-14 10:27:00,
2013-09-14 05:32:00,73.3,68.9,29.83,ENE,60,5.0,9.0,86,0.00,,---,0.00,VWS V14.01,2013-09-14 10:32:00,
2013-09-14 05:37:00,73.2,68.8,29.83,ENE,68,6.0,10.0,86,0.00,,---,0.00,VWS V14.01,2013-09-14 10:37:00,
2013-09-14 05:42:00,73.1,68.7,29.83,ENE,77,6.0,10.0,86,0.00,,---,0.00,VWS V14.01,2013-09-14 10:42:00,
2013-09-14 05:47:00,73.1,68.7,29.83,East,82,5.0,10.0,86,0.00,,---,0.00,VWS V14.01,2013-09-14 10:47:00,
2013-09-14 05:52:00,73.1,68.7,29.84,East,80,4.0,10.0,86,0.00,,---,0.00,VWS V14.01,2013-09-14 10:52:00,
2013-09-14 05:57:00,73.0,68.6,29.84,East,79,4.0,10.0,86,0.00,,---,0.00,VWS V14.01,2013-09-14 10:57:00,
2013-09-14 06:02:00,72.9,68.5,29.84,ENE,64,4.0,6.0,86,0.00,,---,0.00,VWS V14.01,2013-09-14 11:02:00,
2013-09-14 06:07:00,72.8,68.4,29.84,ENE,73,4.0,6.0,86,0.00,,---,0.00,VWS V14.01,2013-09-14 11:07:00,
2013-09-14 06:13:00,72.7,68.3,29.84,ENE,78,5.0,8.0,86,0.00,,---,0.00,VWS V14.01,2013-09-14 11:13:00,
2013-09-14 06:18:00,72.6,68.5,29.84,East,79,4.0,8.0,87,0.00,,---,0.00,VWS V14.01,2013-09-14 11:18:00,
2013-09-14 06:23:00,72.6,68.5,29.84,ENE,66,4.0,8.0,87,0.00,,---,0.00,VWS V14.01,2013-09-14 11:23:00,
2013-09-14 06:28:00,72.5,68.4,29.84,East,86,2.0,8.0,87,0.00,,---,0.00,VWS V14.01,2013-09-14 11:28:00,
2013-09-14 06:33:00,72.5,68.4,29.84,ENE,66,3.0,5.0,87,0.00,,---,0.00,VWS V14.01,2013-09-14 11:33:00,
2013-09-14 06:38:00,72.5,68.4,29.85,ENE,73,1.0,5.0,87,0.00,,---,0.00,VWS V14.01,2013-09-14 11:38:00,
2013-09-14 06:43:00,72.5,68.4,29.85,ENE,73,3.0,5.0,87,0.00,,---,0.00,VWS V14.01,2013-09-14 11:43:00,
2013-09-14 06:48:00,72.6,68.5,29.85,ENE,68,2.0,5.0,87,0.00,,---,0.00,VWS V14.01,2013-09-14 11:48:00,
2013-09-14 06:53:00,72.6,68.2,29.85,ENE,75,3.0,5.0,86,0.00,,---,0.00,VWS V14.01,2013-09-14 11:53:00,
2013-09-14 06:59:00,72.6,68.5,29.85,NE,43,4.0,5.0,87,0.00,,---,0.00,VWS V14.01,2013-09-14 11:59:00,
2013-09-14 07:04:00,72.6,68.2,29.85,ENE,65,2.0,6.0,86,0.00,,---,0.00,VWS V14.01,2013-09-14 12:04:00,
2013-09-14 07:09:00,72.5,68.1,29.86,East,81,1.0,6.0,86,0.00,,---,0.00,VWS V14.01,2013-09-14 12:09:00,
2013-09-14 07:14:00,72.5,68.1,29.86,ENE,78,3.0,6.0,86,0.00,,---,0.00,VWS V14.01,2013-09-14 12:14:00,
2013-09-14 07:19:00,72.4,68.0,29.86,ENE,58,2.0,6.0,86,0.00,,---,0.00,VWS V14.01,2013-09-14 12:19:00,
2013-09-14 07:24:00,72.3,67.9,29.86,ENE,65,2.0,6.0,86,0.00,,---,0.00,VWS V14.01,2013-09-14 12:24:00,
2013-09-14 07:29:00,72.2,67.8,29.86,ENE,76,5.0,6.0,86,0.00,,---,0.00,VWS V14.01,2013-09-14 12:29:00,
2013-09-14 07:34:00,72.2,67.4,29.87,ENE,68,6.0,6.0,85,0.00,,---,0.00,VWS V14.01,2013-09-14 12:34:00,
2013-09-14 07:39:00,72.0,67.2,29.87,NE,48,3.0,6.0,85,0.00,,---,0.00,VWS V14.01,2013-09-14 12:39:00,
2013-09-14 07:45:00,71.8,67.1,29.87,ENE,73,3.0,6.0,85,0.00,,---,0.00,VWS V14.01,2013-09-14 12:45:00,
2013-09-14 07:50:00,71.8,67.4,29.88,ENE,75,1.0,6.0,86,0.00,,---,0.00,VWS V14.01,2013-09-14 12:50:00,
2013-09-14 07:55:00,71.8,67.4,29.88,East,79,1.0,6.0,86,0.00,,---,0.00,VWS V14.01,2013-09-14 12:55:00,
2013-09-14 08:00:00,71.8,67.4,29.88,NE,49,2.0,6.0,86,0.00,,---,0.00,VWS V14.01,2013-09-14 13:00:00,
2013-09-14 08:05:00,71.9,67.2,29.88,ENE,73,1.0,3.0,85,0.00,,---,0.00,VWS V14.01,2013-09-14 13:05:00,
2013-09-14 08:10:00,71.9,67.2,29.88,ENE,75,2.0,4.0,85,0.00,,---,0.00,VWS V14.01,2013-09-14 13:10:00,
2013-09-14 08:15:00,72.0,67.2,29.88,ENE,73,2.0,4.0,85,0.00,,---,0.00,VWS V14.01,2013-09-14 13:15:00,
2013-09-14 08:20:00,72.0,67.2,29.88,ENE,65,4.0,4.0,85,0.00,,---,0.00,VWS V14.01,2013-09-14 13:20:00,
2013-09-14 08:25:00,72.1,67.0,29.89,ENE,75,3.0,6.0,84,0.00,,---,0.00,VWS V14.01,2013-09-14 13:25:00,
2013-09-14 08:30:00,72.1,67.0,29.89,ENE,78,2.0,3.0,84,0.00,,---,0.00,VWS V14.01,2013-09-14 13:30:00,
2013-09-14 08:36:00,72.1,67.0,29.89,East,82,5.0,7.0,84,0.00,,---,0.00,VWS V14.01,2013-09-14 13:36:00,
2013-09-14 08:41:00,72.1,67.0,29.89,East,83,4.0,8.0,84,0.00,,---,0.00,VWS V14.01,2013-09-14 13:41:00,
2013-09-14 08:46:00,72.1,67.0,29.89,ENE,67,3.0,8.0,84,0.00,,---,0.00,VWS V14.01,2013-09-14 13:46:00,
2013-09-14 08:51:00,72.2,67.1,29.89,NE,43,3.0,8.0,84,0.00,,---,0.00,VWS V14.01,2013-09-14 13:51:00,
2013-09-14 08:56:00,72.4,67.3,29.89,ENE,63,5.0,8.0,84,0.00,,---,0.00,VWS V14.01,2013-09-14 13:56:00,
2013-09-14 09:01:00,72.5,67.4,29.89,NE,44,5.0,6.0,84,0.00,,---,0.00,VWS V14.01,2013-09-14 14:01:00,
2013-09-14 09:06:00,72.6,67.2,29.89,East,89,5.0,7.0,83,0.00,,---,0.00,VWS V14.01,2013-09-14 14:06:00,
2013-09-14 09:11:00,72.7,67.2,29.90,NE,46,5.0,7.0,83,0.00,,---,0.00,VWS V14.01,2013-09-14 14:11:00,
2013-09-14 09:16:00,72.8,67.3,29.90,NE,48,2.0,7.0,83,0.00,,---,0.00,VWS V14.01,2013-09-14 14:16:00,
2013-09-14 09:21:00,72.9,67.1,29.90,NE,43,7.0,7.0,82,0.00,,---,0.00,VWS V14.01,2013-09-14 14:21:00,
2013-09-14 09:27:00,73.0,67.2,29.90,NE,44,4.0,10.0,82,0.00,,---,0.00,VWS V14.01,2013-09-14 14:27:00,
2013-09-14 09:32:00,73.2,67.4,29.90,NE,50,9.0,12.0,82,0.00,,---,0.00,VWS V14.01,2013-09-14 14:32:00,
2013-09-14 09:37:00,73.3,67.1,29.90,ENE,60,8.0,12.0,81,0.00,,---,0.00,VWS V14.01,2013-09-14 14:37:00,
2013-09-14 09:42:00,73.3,67.1,29.90,NE,44,6.0,12.0,81,0.00,,---,0.00,VWS V14.01,2013-09-14 14:42:00,
2013-09-14 09:47:00,73.4,67.2,29.90,ENE,58,4.0,12.0,81,0.00,,---,0.00,VWS V14.01,2013-09-14 14:47:00,
2013-09-14 09:52:00,73.6,67.1,29.90,ENE,61,8.0,12.0,80,0.00,,---,0.00,VWS V14.01,2013-09-14 14:52:00,
2013-09-14 09:57:00,73.6,67.1,29.90,ENE,70,2.0,12.0,80,0.00,,---,0.00,VWS V14.01,2013-09-14 14:57:00,
2013-09-14 10:02:00,73.9,67.3,29.91,ENE,75,10.0,10.0,80,0.00,,---,0.00,VWS V14.01,2013-09-14 15:02:00,
2013-09-14 10:07:00,74.0,67.1,29.91,East,85,7.0,10.0,79,0.00,,---,0.00,VWS V14.01,2013-09-14 15:07:00,
2013-09-14 10:12:00,74.4,67.5,29.91,ENE,63,6.0,10.0,79,0.00,,---,0.00,VWS V14.01,2013-09-14 15:12:00,
2013-09-14 10:18:00,74.7,67.4,29.91,ENE,65,4.0,10.0,78,0.00,,---,0.00,VWS V14.01,2013-09-14 15:18:00,
2013-09-14 10:23:00,74.9,67.6,29.91,NE,54,5.0,12.0,78,0.00,,---,0.00,VWS V14.01,2013-09-14 15:23:00,
2013-09-14 10:28:00,75.6,67.9,29.91,ENE,75,6.0,13.0,77,0.00,,---,0.00,VWS V14.01,2013-09-14 15:28:00,
2013-09-14 10:33:00,76.0,67.9,29.91,East,93,9.0,10.0,76,0.00,,---,0.00,VWS V14.01,2013-09-14 15:33:00,
2013-09-14 10:38:00,76.4,67.9,29.91,ENE,75,9.0,14.0,75,0.00,,---,0.00,VWS V14.01,2013-09-14 15:38:00,
2013-09-14 10:43:00,76.8,68.7,29.91,ENE,75,10.0,14.0,76,0.00,,---,0.00,VWS V14.01,2013-09-14 15:43:00,
2013-09-14 10:48:00,76.8,68.7,29.91,ENE,76,10.0,14.0,76,0.00,,---,0.00,VWS V14.01,2013-09-14 15:48:00,
2013-09-14 10:53:00,76.8,68.3,29.91,ENE,77,5.0,15.0,75,0.00,,---,0.00,VWS V14.01,2013-09-14 15:53:00,
2013-09-14 10:58:00,76.8,68.3,29.91,ENE,72,8.0,15.0,75,0.00,,---,0.00,VWS V14.01,2013-09-14 15:58:00,
2013-09-14 11:04:00,76.4,68.3,29.91,ENE,76,6.0,12.0,76,0.00,,---,0.00,VWS V14.01,2013-09-14 16:04:00,
2013-09-14 11:09:00,76.4,68.3,29.91,ESE,109,6.0,12.0,76,0.00,,---,0.00,VWS V14.01,2013-09-14 16:09:00,
2013-09-14 11:14:00,76.2,68.1,29.91,ENE,63,6.0,13.0,76,0.00,,---,0.00,VWS V14.01,2013-09-14 16:14:00,
2013-09-14 11:19:00,76.0,68.3,29.91,ENE,67,6.0,13.0,77,0.00,,---,0.00,VWS V14.01,2013-09-14 16:19:00,
2013-09-14 11:24:00,76.2,68.5,29.90,ENE,71,9.0,13.0,77,0.00,,---,0.00,VWS V14.01,2013-09-14 16:24:00,
2013-09-14 11:29:00,76.4,68.7,29.90,East,90,8.0,13.0,77,0.00,,---,0.00,VWS V14.01,2013-09-14 16:29:00,
2013-09-14 11:34:00,77.1,69.0,29.90,East,94,4.0,11.0,76,0.00,,---,0.00,VWS V14.01,2013-09-14 16:34:00,
2013-09-14 11:39:00,78.2,69.2,29.90,ESE,103,9.0,12.0,74,0.00,,---,0.00,VWS V14.01,2013-09-14 16:39:00,
2013-09-14 11:44:00,78.5,69.1,29.90,ENE,72,6.0,14.0,73,0.00,,---,0.00,VWS V14.01,2013-09-14 16:44:00,
2013-09-14 11:49:00,79.3,69.5,29.90,ESE,110,6.0,14.0,72,0.00,,---,0.00,VWS V14.01,2013-09-14 16:49:00,
2013-09-14 11:55:00,79.5,69.3,29.90,ESE,102,6.0,14.0,71,0.00,,---,0.00,VWS V14.01,2013-09-14 16:55:00,
2013-09-14 12:00:00,80.2,69.9,29.90,SSE,149,5.0,14.0,71,0.00,,---,0.00,VWS V14.01,2013-09-14 17:00:00,
2013-09-14 12:05:00,80.3,70.1,29.89,ESE,112,7.0,13.0,71,0.00,,---,0.00,VWS V14.01,2013-09-14 17:05:00,
2013-09-14 12:10:00,80.5,69.8,29.89,ENE,77,9.0,13.0,70,0.00,,---,0.00,VWS V14.01,2013-09-14 17:10:00,
2013-09-14 12:15:00,80.3,69.6,29.89,ENE,76,8.0,13.0,70,0.00,,---,0.00,VWS V14.01,2013-09-14 17:15:00,
2013-09-14 12:20:00,80.3,69.6,29.89,East,82,7.0,13.0,70,0.00,,---,0.00,VWS V14.01,2013-09-14 17:20:00,
2013-09-14 12:25:00,80.3,69.6,29.89,East,79,9.0,13.0,70,0.00,,---,0.00,VWS V14.01,2013-09-14 17:25:00,
2013-09-14 12:30:00,80.8,70.1,29.89,ENE,78,4.0,13.0,70,0.00,,---,0.00,VWS V14.01,2013-09-14 17:30:00,
2013-09-14 12:35:00,81.2,70.1,29.88,SSE,167,7.0,12.0,69,0.00,,---,0.00,VWS V14.01,2013-09-14 17:35:00,
2013-09-14 12:41:00,82.0,70.0,29.88,ESE,107,8.0,12.0,67,0.00,,---,0.00,VWS V14.01,2013-09-14 17:41:00,
2013-09-14 12:46:00,82.5,69.6,29.88,SE,142,9.0,12.0,65,0.00,,---,0.00,VWS V14.01,2013-09-14 17:46:00,
2013-09-14 12:51:00,83.5,70.1,29.87,SSE,156,8.0,12.0,64,0.00,,---,0.00,VWS V14.01,2013-09-14 17:51:00,
2013-09-14 12:56:00,83.2,69.8,29.87,ENE,68,4.0,12.0,64,0.00,,---,0.00,VWS V14.01,2013-09-14 17:56:00,
2013-09-14 13:01:00,83.5,69.6,29.87,East,79,4.0,4.0,63,0.00,,---,0.00,VWS V14.01,2013-09-14 18:01:00,
2013-09-14 13:06:00,84.0,69.6,29.87,SE,128,12.0,17.0,62,0.00,,---,0.00,VWS V14.01,2013-09-14 18:06:00,
2013-09-14 13:11:00,83.6,69.7,29.87,ENE,77,4.0,17.0,63,0.00,,---,0.00,VWS V14.01,2013-09-14 18:11:00,
2013-09-14 13:16:00,83.8,69.4,29.87,South,187,3.0,17.0,62,0.00,,---,0.00,VWS V14.01,2013-09-14 18:16:00,
2013-09-14 13:21:00,84.0,69.6,29.87,ENE,74,3.0,17.0,62,0.00,,---,0.00,VWS V14.01,2013-09-14 18:21:00,
2013-09-14 13:26:00,84.4,70.0,29.86,SE,146,6.0,17.0,62,0.00,,---,0.00,VWS V14.01,2013-09-14 18:26:00,
2013-09-14 13:32:00,85.1,69.7,29.86,ENE,69,5.0,8.0,60,0.00,,---,0.00,VWS V14.01,2013-09-14 18:32:00,
2013-09-14 13:37:00,85.9,69.9,29.86,East,94,3.0,9.0,59,0.00,,---,0.00,VWS V14.01,2013-09-14 18:37:00,
2013-09-14 13:42:00,86.8,69.8,29.85,ENE,73,4.0,10.0,57,0.00,,---,0.00,VWS V14.01,2013-09-14 18:42:00,
2013-09-14 13:47:00,87.3,69.2,29.85,East,79,6.0,14.0,55,0.00,,---,0.00,VWS V14.01,2013-09-14 18:47:00,
2013-09-14 13:52:00,87.3,69.7,29.85,East,101,11.0,14.0,56,0.00,,---,0.00,VWS V14.01,2013-09-14 18:52:00,
2013-09-14 13:57:00,87.6,69.4,29.85,ESE,120,9.0,14.0,55,0.00,,---,0.00,VWS V14.01,2013-09-14 18:57:00,
2013-09-14 14:02:00,88.3,69.6,29.84,ENE,72,8.0,12.0,54,0.00,,---,0.00,VWS V14.01,2013-09-14 19:02:00,
2013-09-14 14:07:00,88.0,69.3,29.84,East,95,6.0,12.0,54,0.00,,---,0.00,VWS V14.01,2013-09-14 19:07:00,
2013-09-14 14:12:00,88.6,69.3,29.84,East,99,6.0,12.0,53,0.00,,---,0.00,VWS V14.01,2013-09-14 19:12:00,
2013-09-14 14:18:00,88.7,69.4,29.84,ESE,103,13.0,13.0,53,0.00,,---,0.00,VWS V14.01,2013-09-14 19:18:00,
2013-09-14 14:23:00,89.1,68.6,29.84,NE,54,2.0,16.0,51,0.00,,---,0.00,VWS V14.01,2013-09-14 19:23:00,
2013-09-14 14:28:00,89.1,68.6,29.83,East,81,15.0,16.0,51,0.00,,---,0.00,VWS V14.01,2013-09-14 19:28:00,
2013-09-14 14:33:00,88.7,68.8,29.83,ENE,59,9.0,12.0,52,0.00,,---,0.00,VWS V14.01,2013-09-14 19:33:00,
2013-09-14 14:38:00,89.2,68.2,29.83,NE,51,5.0,12.0,50,0.00,,---,0.00,VWS V14.01,2013-09-14 19:38:00,
2013-09-14 14:43:00,89.3,68.2,29.83,SSE,158,2.0,14.0,50,0.00,,---,0.00,VWS V14.01,2013-09-14 19:43:00,
2013-09-14 14:48:00,90.2,68.5,29.83,SE,124,6.0,14.0,49,0.00,,---,0.00,VWS V14.01,2013-09-14 19:48:00,
2013-09-14 14:53:00,90.3,68.0,29.82,ENE,70,7.0,14.0,48,0.00,,---,0.00,VWS V14.01,2013-09-14 19:53:00,
2013-09-14 14:58:00,90.4,68.1,29.82,East,79,7.0,14.0,48,0.00,,---,0.00,VWS V14.01,2013-09-14 19:58:00,
2013-09-14 15:04:00,90.4,67.4,29.82,East,82,4.0,8.0,47,0.00,,---,0.00,VWS V14.01,2013-09-14 20:04:00,
2013-09-14 15:09:00,90.3,67.3,29.82,East,96,4.0,13.0,47,0.00,,---,0.00,VWS V14.01,2013-09-14 20:09:00,
2013-09-14 15:14:00,90.2,67.3,29.81,NE,34,6.0,13.0,47,0.00,,---,0.00,VWS V14.01,2013-09-14 20:14:00,
2013-09-14 15:19:00,89.9,66.4,29.81,East,94,5.0,13.0,46,0.00,,---,0.00,VWS V14.01,2013-09-14 20:19:00,
2013-09-14 15:24:00,90.3,66.7,29.81,ENE,62,6.0,13.0,46,0.00,,---,0.00,VWS V14.01,2013-09-14 20:24:00,
2013-09-14 15:29:00,91.0,66.7,29.80,ENE,72,10.0,13.0,45,0.00,,---,0.00,VWS V14.01,2013-09-14 20:29:00,
2013-09-14 15:34:00,91.4,66.4,29.80,ESE,115,4.0,8.0,44,0.00,,---,0.00,VWS V14.01,2013-09-14 20:34:00,
2013-09-14 15:39:00,90.9,66.0,29.80,ESE,122,6.0,10.0,44,0.00,,---,0.00,VWS V14.01,2013-09-14 20:39:00,
2013-09-14 15:44:00,90.1,65.9,29.80,SE,141,4.0,10.0,45,0.00,,---,0.00,VWS V14.01,2013-09-14 20:44:00,
2013-09-14 15:49:00,90.4,66.2,29.80,East,83,3.0,10.0,45,0.00,,---,0.00,VWS V14.01,2013-09-14 20:49:00,
2013-09-14 15:55:00,90.5,66.3,29.79,SE,141,6.0,10.0,45,0.00,,---,0.00,VWS V14.01,2013-09-14 20:55:00,
2013-09-14 16:00:00,90.3,66.1,29.79,ESE,108,6.0,10.0,45,0.00,,---,0.00,VWS V14.01,2013-09-14 21:00:00,
2013-09-14 16:05:00,90.0,65.8,29.79,East,91,3.0,8.0,45,0.00,,---,0.00,VWS V14.01,2013-09-14 21:05:00,
2013-09-14 16:10:00,90.3,66.7,29.78,East,79,8.0,10.0,46,0.00,,---,0.00,VWS V14.01,2013-09-14 21:10:00,
2013-09-14 16:15:00,90.0,66.5,29.78,East,79,6.0,12.0,46,0.00,,---,0.00,VWS V14.01,2013-09-14 21:15:00,
2013-09-14 16:20:00,90.4,66.8,29.78,East,85,5.0,12.0,46,0.00,,---,0.00,VWS V14.01,2013-09-14 21:20:00,
2013-09-14 16:25:00,90.7,67.1,29.78,East,82,6.0,12.0,46,0.00,,---,0.00,VWS V14.01,2013-09-14 21:25:00,
2013-09-14 16:30:00,90.9,65.3,29.78,SE,127,5.0,12.0,43,0.00,,---,0.00,VWS V14.01,2013-09-14 21:30:00,
2013-09-14 16:35:00,91.8,66.1,29.78,East,101,7.0,10.0,43,0.00,,---,0.00,VWS V14.01,2013-09-14 21:35:00,
2013-09-14 16:40:00,91.7,65.4,29.78,East,80,7.0,10.0,42,0.00,,---,0.00,VWS V14.01,2013-09-14 21:40:00,
2013-09-14 16:46:00,91.8,66.1,29.77,ESE,121,9.0,13.0,43,0.00,,---,0.00,VWS V14.01,2013-09-14 21:46:00,
2013-09-14 16:51:00,92.1,65.7,29.77,SE,131,8.0,13.0,42,0.00,,---,0.00,VWS V14.01,2013-09-14 21:51:00,
2013-09-14 16:56:00,92.4,66.0,29.77,SSE,152,7.0,13.0,42,0.00,,---,0.00,VWS V14.01,2013-09-14 21:56:00,
2013-09-14 17:01:00,92.4,66.0,29.77,East,96,6.0,8.0,42,0.00,,---,0.00,VWS V14.01,2013-09-14 22:01:00,
2013-09-14 17:06:00,92.3,66.6,29.78,ESE,122,3.0,14.0,43,0.00,,---,0.00,VWS V14.01,2013-09-14 22:06:00,
2013-09-14 17:11:00,92.6,65.5,29.77,SE,127,6.0,14.0,41,0.00,,---,0.00,VWS V14.01,2013-09-14 22:11:00,
2013-09-14 17:16:00,92.4,64.6,29.77,ENE,70,9.0,14.0,40,0.00,,---,0.00,VWS V14.01,2013-09-14 22:16:00,
2013-09-14 17:21:00,92.3,65.2,29.78,SE,127,4.0,14.0,41,0.00,,---,0.00,VWS V14.01,2013-09-14 22:21:00,
2013-09-14 17:26:00,91.4,67.7,29.78,ENE,68,16.0,17.0,46,0.00,,---,0.00,VWS V14.01,2013-09-14 22:26:00,
2013-09-14 17:32:00,90.0,67.7,29.78,ENE,77,11.0,12.0,48,0.00,,---,0.00,VWS V14.01,2013-09-14 22:32:00,
2013-09-14 17:37:00,89.7,66.8,29.78,ENE,77,12.0,18.0,47,0.00,,---,0.00,VWS V14.01,2013-09-14 22:37:00,
2013-09-14 17:42:00,89.9,67.0,29.78,East,79,11.0,18.0,47,0.00,,---,0.00,VWS V14.01,2013-09-14 22:42:00,
2013-09-14 17:47:00,90.1,67.8,29.78,ENE,77,10.0,18.0,48,0.00,,---,0.00,VWS V14.01,2013-09-14 22:47:00,
2013-09-14 17:49:00,90.0,67.1,29.78,ENE,72,9.0,18.0,47,0.00,,---,0.00,VWS V14.01,2013-09-14 22:49:00,
2013-09-14 17:54:00,89.7,66.8,29.78,ENE,72,10.0,18.0,47,0.00,,---,0.00,VWS V14.01,2013-09-14 22:54:00,
2013-09-14 18:00:00,89.2,67.6,29.78,East,93,6.0,18.0,49,0.00,,---,0.00,VWS V14.01,2013-09-14 23:00:00,
2013-09-14 18:05:00,89.3,67.1,29.78,ENE,69,6.0,11.0,48,0.00,,---,0.00,VWS V14.01,2013-09-14 23:05:00,
2013-09-14 18:10:00,89.2,67.0,29.78,ENE,75,7.0,12.0,48,0.00,,---,0.00,VWS V14.01,2013-09-14 23:10:00,
2013-09-14 18:15:00,89.0,66.2,29.78,East,85,10.0,14.0,47,0.00,,---,0.00,VWS V14.01,2013-09-14 23:15:00,
2013-09-14 18:20:00,88.7,66.5,29.78,East,95,12.0,19.0,48,0.00,,---,0.00,VWS V14.01,2013-09-14 23:20:00,
2013-09-14 18:25:00,88.0,67.1,29.78,ESE,114,8.0,19.0,50,0.00,,---,0.00,VWS V14.01,2013-09-14 23:25:00,
2013-09-14 18:30:00,87.4,67.1,29.79,East,97,13.0,19.0,51,0.00,,---,0.00,VWS V14.01,2013-09-14 23:30:00,
2013-09-14 18:35:00,86.5,67.9,29.79,NE,56,8.0,16.0,54,0.00,,---,0.00,VWS V14.01,2013-09-14 23:35:00,
2013-09-14 18:40:00,85.8,67.8,29.79,East,96,10.0,16.0,55,0.00,,---,0.00,VWS V14.01,2013-09-14 23:40:00,
2013-09-14 18:45:00,85.6,68.1,29.79,ESE,105,8.0,16.0,56,0.00,,---,0.00,VWS V14.01,2013-09-14 23:45:00,
2013-09-14 18:51:00,85.5,68.0,29.79,ENE,72,7.0,16.0,56,0.00,,---,0.00,VWS V14.01,2013-09-14 23:51:00,
2013-09-14 18:56:00,85.4,67.9,29.79,East,87,7.0,16.0,56,0.00,,---,0.00,VWS V14.01,2013-09-14 23:56:00,
2013-09-14 19:01:00,85.2,67.8,29.78,ENE,77,6.0,8.0,56,0.00,,---,0.00,VWS V14.01,2013-09-15 00:01:00,
2013-09-14 19:06:00,85.2,67.2,29.78,ENE,76,9.0,9.0,55,0.00,,---,0.00,VWS V14.01,2013-09-15 00:06:00,
2013-09-14 19:11:00,85.2,67.2,29.78,East,80,6.0,11.0,55,0.00,,---,0.00,VWS V14.01,2013-09-15 00:11:00,
2013-09-14 19:16:00,85.0,67.0,29.78,East,99,7.0,11.0,55,0.00,,---,0.00,VWS V14.01,2013-09-15 00:16:00,
2013-09-14 19:21:00,84.8,67.4,29.79,ENE,77,8.0,11.0,56,0.00,,---,0.00,VWS V14.01,2013-09-15 00:21:00,
2013-09-14 19:26:00,84.6,67.2,29.78,ENE,68,7.0,11.0,56,0.00,,---,0.00,VWS V14.01,2013-09-15 00:26:00,
2013-09-14 19:31:00,84.3,67.4,29.78,ENE,72,4.0,5.0,57,0.00,,---,0.00,VWS V14.01,2013-09-15 00:31:00,
2013-09-14 19:37:00,84.1,67.7,29.79,East,87,4.0,7.0,58,0.00,,---,0.00,VWS V14.01,2013-09-15 00:37:00,
2013-09-14 19:42:00,83.8,68.0,29.79,East,86,3.0,7.0,59,0.00,,---,0.00,VWS V14.01,2013-09-15 00:42:00,
2013-09-14 19:47:00,83.5,67.7,29.79,ENE,70,4.0,7.0,59,0.00,,---,0.00,VWS V14.01,2013-09-15 00:47:00,
2013-09-14 19:52:00,83.3,68.0,29.79,ENE,68,4.0,7.0,60,0.00,,---,0.00,VWS V14.01,2013-09-15 00:52:00,
2013-09-14 19:57:00,83.0,67.7,29.79,East,93,4.0,7.0,60,0.00,,---,0.00,VWS V14.01,2013-09-15 00:57:00,
2013-09-14 20:02:00,82.7,67.4,29.78,East,79,2.0,5.0,60,0.00,,---,0.00,VWS V14.01,2013-09-15 01:02:00,
2013-09-14 20:07:00,82.8,66.5,29.78,ESE,114,4.0,6.0,58,0.00,,---,0.00,VWS V14.01,2013-09-15 01:07:00,
2013-09-14 20:13:00,83.3,66.5,29.78,ESE,104,3.0,8.0,57,0.00,,---,0.00,VWS V14.01,2013-09-15 01:13:00,
2013-09-14 20:18:00,83.5,66.2,29.78,ESE,121,2.0,8.0,56,0.00,,---,0.00,VWS V14.01,2013-09-15 01:18:00,
2013-09-14 20:23:00,83.7,65.3,29.78,ENE,72,4.0,8.0,54,0.00,,---,0.00,VWS V14.01,2013-09-15 01:23:00,
2013-09-14 20:28:00,83.9,66.0,29.79,ENE,68,6.0,8.0,55,0.00,,---,0.00,VWS V14.01,2013-09-15 01:28:00,
2013-09-14 20:33:00,83.8,66.4,29.79,East,91,6.0,7.0,56,0.00,,---,0.00,VWS V14.01,2013-09-15 01:33:00,
2013-09-14 20:38:00,83.6,66.3,29.79,East,85,5.0,8.0,56,0.00,,---,0.00,VWS V14.01,2013-09-15 01:38:00,
2013-09-14 20:43:00,83.5,66.2,29.79,ESE,104,4.0,9.0,56,0.00,,---,0.00,VWS V14.01,2013-09-15 01:43:00,
2013-09-14 20:48:00,83.3,66.0,29.79,ESE,104,3.0,9.0,56,0.00,,---,0.00,VWS V14.01,2013-09-15 01:48:00,
2013-09-14 20:53:00,83.2,65.9,29.79,ENE,75,5.0,9.0,56,0.00,,---,0.00,VWS V14.01,2013-09-15 01:53:00,
2013-09-14 20:58:00,83.2,65.9,29.79,ENE,73,3.0,9.0,56,0.00,,---,0.00,VWS V14.01,2013-09-15 01:58:00,
2013-09-14 21:04:00,83.3,66.0,29.80,ENE,70,7.0,9.0,56,0.00,,---,0.00,VWS V14.01,2013-09-15 02:04:00,
2013-09-14 21:09:00,83.2,65.9,29.80,ENE,71,6.0,9.0,56,0.00,,---,0.00,VWS V14.01,2013-09-15 02:09:00,
2013-09-14 21:14:00,83.0,65.7,29.80,East,98,6.0,10.0,56,0.00,,---,0.00,VWS V14.01,2013-09-15 02:14:00,
2013-09-14 21:19:00,82.9,65.6,29.80,ENE,74,5.0,10.0,56,0.00,,---,0.00,VWS V14.01,2013-09-15 02:19:00,
2013-09-14 21:24:00,82.5,65.8,29.80,ENE,60,7.0,12.0,57,0.00,,---,0.00,VWS V14.01,2013-09-15 02:24:00,
2013-09-14 21:29:00,82.1,66.4,29.80,ENE,74,10.0,13.0,59,0.00,,---,0.00,VWS V14.01,2013-09-15 02:29:00,
2013-09-14 21:34:00,81.7,66.5,29.81,East,82,5.0,12.0,60,0.00,,---,0.00,VWS V14.01,2013-09-15 02:34:00,
2013-09-14 21:39:00,81.4,66.7,29.81,ENE,72,6.0,12.0,61,0.00,,---,0.00,VWS V14.01,2013-09-15 02:39:00,
2013-09-14 21:44:00,81.1,66.9,29.81,East,83,6.0,13.0,62,0.00,,---,0.00,VWS V14.01,2013-09-15 02:44:00,
2013-09-14 21:50:00,80.8,66.6,29.81,East,84,6.0,13.0,62,0.00,,---,0.00,VWS V14.01,2013-09-15 02:50:00,
2013-09-14 21:55:00,80.7,66.5,29.81,ENE,75,9.0,13.0,62,0.00,,---,0.00,VWS V14.01,2013-09-15 02:55:00,
2013-09-14 22:00:00,80.8,66.1,29.81,East,84,4.0,13.0,61,0.00,,---,0.00,VWS V14.01,2013-09-15 03:00:00,
2013-09-14 22:05:00,80.8,65.6,29.81,East,84,6.0,10.0,60,0.00,,---,0.00,VWS V14.01,2013-09-15 03:05:00,
2013-09-14 22:10:00,80.9,65.2,29.81,East,93,9.0,10.0,59,0.00,,---,0.00,VWS V14.01,2013-09-15 03:10:00,
2013-09-14 22:15:00,81.2,65.0,29.82,East,79,4.0,13.0,58,0.00,,---,0.00,VWS V14.01,2013-09-15 03:15:00,
2013-09-14 22:20:00,81.4,65.2,29.82,East,94,7.0,13.0,58,0.00,,---,0.00,VWS V14.01,2013-09-15 03:20:00,
2013-09-14 22:25:00,81.4,65.2,29.82,ESE,108,7.0,13.0,58,0.00,,---,0.00,VWS V14.01,2013-09-15 03:25:00,
2013-09-14 22:31:00,81.2,65.0,29.82,ENE,70,7.0,11.0,58,0.00,,---,0.00,VWS V14.01,2013-09-15 03:31:00,
2013-09-14 22:36:00,81.0,65.3,29.82,East,91,6.0,11.0,59,0.00,,---,0.00,VWS V14.01,2013-09-15 03:36:00,
2013-09-14 22:41:00,80.8,65.2,29.82,East,90,5.0,11.0,59,0.00,,---,0.00,VWS V14.01,2013-09-15 03:41:00,
2013-09-14 22:46:00,80.7,65.1,29.82,SE,131,6.0,11.0,59,0.00,,---,0.00,VWS V14.01,2013-09-15 03:46:00,
2013-09-14 22:51:00,80.6,65.0,29.83,SE,144,4.0,11.0,59,0.00,,---,0.00,VWS V14.01,2013-09-15 03:51:00,
2013-09-14 22:56:00,80.3,64.7,29.83,East,81,4.0,11.0,59,0.00,,---,0.00,VWS V14.01,2013-09-15 03:56:00,
2013-09-14 23:01:00,80.2,65.1,29.83,ENE,66,4.0,5.0,60,0.00,,---,0.00,VWS V14.01,2013-09-15 04:01:00,
2013-09-14 23:02:00,80.2,65.1,29.83,ESE,110,4.0,5.0,60,0.00,,---,0.00,VWS V14.01,2013-09-15 04:02:00,
2013-09-14 23:03:00,80.1,65.0,29.83,East,94,5.0,6.0,60,0.00,,---,0.00,VWS V14.01,2013-09-15 04:03:00,
2013-09-14 23:04:00,80.1,65.0,29.83,ENE,76,5.0,6.0,60,0.00,,---,0.00,VWS V14.01,2013-09-15 04:04:00,
2013-09-14 23:09:00,80.0,64.9,29.83,ESE,113,4.0,8.0,60,0.00,,---,0.00,VWS V14.01,2013-09-15 04:09:00,
2013-09-14 23:14:00,80.0,64.9,29.83,East,100,3.0,8.0,60,0.00,,---,0.00,VWS V14.01,2013-09-15 04:14:00,
2013-09-14 23:19:00,80.0,64.9,29.83,ESE,111,4.0,10.0,60,0.00,,---,0.00,VWS V14.01,2013-09-15 04:19:00,
2013-09-14 23:24:00,79.9,64.8,29.83,ESE,117,6.0,10.0,60,0.00,,---,0.00,VWS V14.01,2013-09-15 04:24:00,
2013-09-14 23:29:00,79.7,64.6,29.83,ESE,102,5.0,10.0,60,0.00,,---,0.00,VWS V14.01,2013-09-15 04:29:00,
2013-09-14 23:34:00,79.6,64.5,29.83,East,79,5.0,9.0,60,0.00,,---,0.00,VWS V14.01,2013-09-15 04:34:00,
2013-09-14 23:39:00,79.8,64.7,29.84,East,96,4.0,10.0,60,0.00,,---,0.00,VWS V14.01,2013-09-15 04:39:00,
2013-09-14 23:44:00,79.9,64.3,29.84,East,98,4.0,13.0,59,0.00,,---,0.00,VWS V14.01,2013-09-15 04:44:00,
2013-09-14 23:50:00,79.8,64.7,29.84,East,90,5.0,13.0,60,0.00,,---,0.00,VWS V14.01,2013-09-15 04:50:00,
2013-09-14 23:55:00,79.6,64.5,29.83,ESE,107,5.0,13.0,60,0.00,,---,0.00,VWS V14.01,2013-09-15 04:55:00,